{"data":{"norad_id":60461,"epoch":"2026-09-22T23:28:39.379584Z","epoch_age_seconds":72044,"freshness":"FRESH","line1":"1 60461U 24148D   26265.97823356  .00005466  00000+0  17917-3 0  9998","line2":"2 60461  35.0045 246.4961 0001190  23.2581 336.8190 15.30978614117272","mean_motion":15.30978614,"eccentricity":0.000119,"inclination_deg":35.0045,"raan_deg":246.4961,"arg_perigee_deg":23.2581,"mean_anomaly_deg":336.819,"bstar":0.00017917,"rev_number":11727,"period_min":94.057486292229,"perigee_km":472.07598133031,"apogee_km":473.70652605469,"semimajor_km":6851.0282536925,"source":"CELESTRAK","updated_at":"2026-09-23T09:00:20.618956Z"}}